GEFSNE_500_meanwind_216.txt.gz
Wind_Speed
13 13 14 14 15 15 16 16 17 18 19 19 20 20 21 22 23 24 24 24 24 25 26 26 27 27 26 26 27 27 28 28 28 28 28 29 30 30
13 14 14 15 15 16 16 16 17 18 18 19 20 20 21 22 22 24 25 24 24 25 25 26 26 26 26 26 27 27 28 28 29 29 30 30 31 32
14 14 15 16 16 16 16 17 17 18 19 20 21 21 21 23 24 24 25 25 25 26 26 27 27 26 26 27 27 28 28 29 30 31 31 31 32 32
15 15 16 16 16 16 17 17 18 18 19 20 21 22 22 23 23 23 24 25 26 27 28 28 27 26 26 27 28 29 29 30 31 31 32 33 33 33
16 16 17 17 17 18 18 18 18 19 20 20 21 22 22 22 22 23 24 25 26 26 26 26 26 26 27 28 29 30 30 31 31 32 33 34 35 35
17 17 17 18 19 19 19 19 19 19 20 20 21 22 22 21 22 23 24 25 26 26 26 27 27 27 28 29 30 30 30 31 32 33 34 35 36 37
17 17 18 18 19 19 19 20 20 21 20 20 20 21 21 22 22 22 23 24 25 25 26 26 26 27 27 29 30 30 31 32 33 33 34 34 35 36
18 18 18 18 18 19 19 19 19 19 20 20 21 21 22 21 21 22 23 24 24 25 27 28 28 28 28 29 30 31 31 32 32 33 34 34 34 35
19 18 18 19 19 19 20 20 19 19 19 19 20 21 21 22 22 23 24 25 25 26 27 27 28 29 29 30 31 32 32 32 32 33 33 34 34 34
19 19 19 19 19 20 20 20 19 19 19 20 21 21 22 22 22 23 24 25 26 27 27 28 28 29 29 30 31 31 31 31 32 33 33 33 34 34
19 19 19 20 20 20 20 20 20 20 20 21 21 22 22 23 23 24 25 26 27 27 28 29 29 29 30 31 31 32 32 33 33 33 33 33 34 34
20 20 20 20 20 20 20 20 20 20 21 22 22 23 24 24 25 25 26 27 28 28 29 30 30 31 31 31 31 32 33 33 32 33 33 33 33 33
21 21 20 20 20 21 20 20 21 22 22 23 24 25 25 26 27 27 28 28 29 29 30 30 31 31 31 31 32 32 33 33 33 33 33 33 33 33
21 21 21 21 21 21 22 22 22 23 23 24 24 25 26 27 27 28 29 29 30 30 31 31 32 32 32 32 32 32 32 32 32 32 32 32 32 32
22 22 22 23 23 22 22 23 23 23 23 24 25 26 27 27 28 29 29 30 31 31 31 32 32 32 32 32 31 31 31 31 32 32 32 32 32 32
24 24 23 23 23 23 23 23 23 23 24 25 26 26 27 28 29 29 30 30 31 31 32 32 32 32 32 32 33 32 32 32 32 32 32 32 31 31
25 25 23 23 23 23 23 24 24 25 25 26 27 28 28 29 29 30 30 31 31 31 32 32 33 33 33 33 33 33 33 32 32 32 32 31 30 30
25 24 23 23 24 24 24 25 25 26 27 27 28 28 29 30 30 31 31 32 32 32 32 32 32 32 33 33 32 32 32 32 31 31 30 29 28 28
24 24 24 24 25 25 25 26 26 27 28 28 28 29 30 30 30 31 31 31 31 32 32 32 32 32 32 32 32 32 32 31 31 30 30 29 28 28
24 24 25 25 26 26 27 27 27 27 28 28 29 30 30 31 31 31 31 31 32 32 32 32 32 32 32 32 31 31 30 30 30 29 29 28 28 28
25 25 25 26 26 27 27 27 27 28 28 29 29 30 31 31 31 31 31 31 32 32 32 32 32 32 32 31 31 30 30 30 30 30 30 29 29 28
26 26 27 27 27 27 27 28 28 29 29 30 30 30 30 30 30 30 30 30 31 32 32 32 32 31 31 31 31 30 30 30 29 29 29 28 27 27
28 28 28 29 28 28 29 29 29 29 29 30 30 30 30 30 30 30 30 31 31 31 31 31 31 31 30 31 30 30 29 29 29 29 28 27 27 27

GEFSNE_500_meanwind_222.txt.gz
Wind_Speed
13 13 14 15 15 16 16 17 18 18 19 20 21 21 21 20 21 22 22 23 24 24 25 26 26 26 26 26 27 28 28 28 28 28 28 29 29 29
14 14 14 15 16 17 17 18 18 19 19 20 21 21 21 21 22 23 23 23 24 24 25 25 26 27 27 27 28 27 27 28 28 28 29 30 30 30
15 15 16 17 17 18 19 19 19 20 19 19 21 21 22 23 23 24 25 25 25 25 25 26 26 27 27 27 28 29 29 30 29 29 30 30 30 31
16 16 17 18 18 19 19 19 20 20 20 20 21 22 23 24 24 24 25 25 25 26 26 26 26 26 27 28 28 29 29 29 29 31 31 31 32 33
17 17 18 18 19 19 19 19 19 20 21 21 22 23 23 23 23 23 24 24 24 25 26 27 27 27 27 27 28 28 28 29 30 31 32 33 33 33
18 19 19 19 19 20 20 20 20 21 21 21 21 22 22 22 22 22 23 24 24 25 26 26 26 26 27 27 28 28 29 30 31 32 33 33 33 33
19 20 20 20 20 20 20 20 21 21 22 22 22 22 23 23 23 22 22 23 24 25 25 26 26 26 26 27 28 29 30 31 31 31 31 32 33 34
19 20 20 20 20 20 20 20 21 22 22 22 22 22 23 23 23 22 23 23 24 24 25 26 27 27 27 28 29 30 31 31 31 32 32 33 34 34
20 20 20 20 20 20 20 21 21 21 21 22 22 22 22 23 23 23 23 24 24 25 26 27 28 28 30 31 31 32 32 32 33 33 33 33 34 34
21 21 21 21 21 21 21 22 22 22 22 22 22 22 22 23 23 24 24 25 25 26 26 28 29 29 31 31 32 32 33 33 33 34 33 33 34 34
21 21 22 22 22 22 23 22 22 22 23 23 23 23 23 23 23 24 24 25 25 26 27 28 28 29 31 32 32 32 33 33 33 34 34 34 34 33
22 22 23 23 23 23 23 23 23 23 23 23 23 23 23 23 24 24 25 25 26 27 28 29 30 30 31 32 33 33 34 34 34 34 33 33 34 34
23 24 24 24 24 24 24 24 24 24 24 23 23 24 24 24 24 25 26 27 27 28 29 29 30 31 32 33 33 34 34 34 34 33 33 33 33 33
26 25 25 25 25 25 25 24 24 24 24 24 24 24 24 25 25 26 27 28 29 29 30 31 32 33 34 34 34 33 33 33 32 32 32 33 33 33
27 26 26 25 25 25 25 25 24 25 25 25 25 25 26 26 27 28 29 29 30 31 31 32 33 33 34 34 33 33 32 32 32 32 32 32 32 32
26 26 26 26 26 26 26 27 26 26 25 26 26 26 26 27 28 29 29 30 30 32 32 33 34 34 33 33 32 32 31 31 31 31 31 31 31 31
25 25 25 26 26 26 26 26 26 26 26 26 26 26 27 28 28 29 29 30 31 33 33 33 34 33 33 33 33 32 31 31 31 31 32 32 31 31
25 25 25 25 25 25 26 25 25 25 26 26 27 27 28 28 29 29 30 31 31 32 33 33 33 33 33 33 33 32 32 31 31 31 31 31 30 30
26 25 25 25 25 26 26 26 26 26 26 27 28 29 29 29 30 30 31 31 32 32 32 32 32 32 32 32 31 31 31 31 32 32 32 31 30 30
27 26 26 26 26 27 27 27 27 27 28 29 29 30 30 30 30 31 31 31 32 32 32 32 32 31 31 31 31 31 31 31 31 31 31 31 30 30
28 28 27 28 28 28 28 27 28 28 29 30 30 30 30 30 30 31 31 31 31 32 32 31 31 30 31 31 31 30 30 30 30 29 29 29 28 28
29 29 29 29 29 29 29 28 28 28 29 29 29 30 30 30 31 31 31 31 31 31 31 30 30 30 30 30 30 30 30 30 30 29 28 28 27 26
30 30 30 30 30 30 29 29 28 28 29 29 30 30 30 30 30 31 31 31 31 30 29 29 29 30 30 30 29 29 29 29 28 28 27 27 27 27

GEFSNE_500_meanwind_228.txt.gz
Wind_Speed
13 14 15 15 15 16 16 17 18 19 19 19 20 20 21 20 20 21 21 22 22 23 23 23 23 23 23 24 25 25 25 26 26 26 26 26 26 27
14 14 15 16 16 17 18 18 19 20 20 21 21 22 22 22 22 23 23 23 24 23 23 23 24 24 24 24 25 26 26 26 25 26 27 27 27 28
15 15 16 17 18 18 19 19 19 20 20 21 22 22 22 23 23 23 24 24 25 24 24 24 24 24 25 26 26 26 26 26 26 27 26 26 26 27
16 17 17 18 18 18 18 19 19 20 20 21 22 22 22 23 23 23 24 24 24 24 24 24 24 25 26 26 26 26 26 27 28 27 26 27 27 28
17 18 18 18 18 18 19 20 20 20 20 20 21 22 22 23 23 23 23 23 23 24 24 25 26 26 26 26 26 27 27 28 28 28 28 29 29 30
18 19 19 19 19 20 20 20 21 21 21 20 21 21 21 22 21 21 22 22 22 23 25 25 26 26 26 26 27 28 28 28 29 29 29 30 30 31
20 20 20 20 20 20 21 21 21 21 21 21 21 21 21 21 21 21 21 21 22 23 24 24 24 25 26 26 27 27 28 29 29 29 30 31 32 32
20 20 20 20 21 21 21 22 22 22 21 21 21 21 21 21 21 21 21 21 22 23 24 24 24 25 26 26 27 28 29 29 30 31 31 32 33 33
21 21 21 21 21 21 21 21 21 21 21 21 21 21 21 21 21 21 22 22 23 24 24 25 25 26 26 27 27 28 29 30 31 32 33 33 33 34
21 21 21 22 23 23 22 22 22 21 21 22 22 22 22 21 21 21 22 23 23 23 24 25 25 26 27 27 28 29 30 31 32 32 32 32 33 33
22 23 23 23 23 23 23 23 23 23 22 22 22 22 22 22 22 22 22 23 23 24 24 25 26 26 27 28 29 30 31 31 32 32 32 32 32 33
24 25 25 25 25 25 25 24 23 23 23 23 22 22 23 23 23 23 23 23 24 24 25 26 27 27 28 29 29 30 31 31 31 31 31 31 31 32
26 27 26 26 26 26 25 25 25 24 24 24 23 23 23 23 23 24 24 25 25 25 26 27 28 28 29 30 30 31 31 31 31 31 31 31 31 31
28 28 28 28 28 27 26 26 26 25 25 25 24 24 24 24 24 25 25 25 25 26 26 27 28 29 29 30 30 31 31 31 31 31 31 31 31 32
28 28 28 28 28 28 28 27 26 26 26 25 24 24 25 25 25 25 25 25 25 26 27 27 28 29 30 31 32 32 32 31 31 31 31 31 31 31
29 29 29 29 29 28 27 27 26 26 26 26 25 25 25 25 25 25 26 26 27 26 27 28 29 30 31 31 32 32 31 32 32 31 31 31 31 30
30 30 29 29 29 29 28 28 27 27 26 26 25 25 25 26 26 26 27 27 27 27 28 28 29 31 31 32 32 31 31 31 31 31 30 30 29 30
31 31 30 29 29 28 28 27 26 26 26 26 26 26 27 27 27 27 28 28 28 28 29 29 30 30 31 30 30 30 31 30 30 30 30 30 29 29
32 31 30 30 29 28 27 27 27 27 27 28 28 28 28 28 28 29 29 28 28 29 29 29 29 30 30 29 28 29 29 29 29 29 28 28 28 28
32 31 30 29 29 29 28 28 28 28 28 28 29 29 28 28 29 29 29 29 29 28 29 29 29 28 28 28 28 28 28 28 28 28 27 27 27 26
31 30 30 29 29 29 28 28 28 28 29 29 29 29 29 29 29 29 29 29 29 28 28 28 28 28 28 28 28 28 27 27 27 27 26 26 26 26
30 30 30 29 29 28 28 28 28 29 29 29 29 29 29 29 30 30 29 29 28 28 28 28 28 28 28 28 28 28 27 27 26 26 26 26 26 26
31 31 30 29 29 29 29 29 29 29 29 29 28 29 29 30 30 29 28 28 28 28 28 28 28 28 28 27 27 27 27 27 26 26 26 26 26 27

GEFSNE_500_meanwind_234.txt.gz
Wind_Speed
14 15 15 15 15 16 16 16 16 17 17 18 18 18 19 19 19 19 20 21 21 22 22 22 22 21 21 22 22 23 23 23 23 22 22 23 23 23
15 15 16 16 16 16 16 17 17 18 17 18 19 19 19 19 20 20 21 21 22 23 23 23 23 23 22 22 22 22 22 22 23 23 23 23 24 24
16 17 17 17 17 18 18 18 18 19 19 19 19 20 20 20 21 22 21 21 22 23 23 23 23 23 23 22 22 22 23 23 23 24 25 25 26 26
18 18 18 18 18 19 19 19 19 19 19 19 20 21 21 21 22 22 22 22 22 22 21 22 22 22 22 22 22 23 23 24 24 24 25 26 27 26
19 19 19 19 19 19 19 20 19 19 20 20 20 21 22 22 22 22 22 22 22 21 20 20 21 22 22 22 23 23 23 24 25 26 26 26 27 27
19 19 19 19 19 19 20 20 20 21 21 21 21 21 22 22 22 22 22 22 21 21 20 21 21 22 22 23 24 24 24 24 24 25 26 27 27 27
20 20 20 20 20 20 21 21 21 22 22 22 22 22 22 22 22 22 22 22 21 20 20 20 20 21 22 23 24 24 24 25 25 26 26 26 27 27
21 21 21 21 20 20 21 21 22 22 23 23 22 22 22 22 22 21 20 20 20 20 20 20 20 21 21 22 23 24 24 24 25 26 26 26 27 28
22 22 21 21 21 21 21 21 22 22 22 23 23 22 22 22 22 21 21 20 20 20 20 20 21 21 21 22 23 23 24 25 26 26 27 27 28 28
24 24 24 23 22 22 22 23 23 23 23 23 23 23 23 23 22 22 21 21 21 21 21 21 21 22 22 23 23 24 24 25 26 27 28 28 28 29
26 26 25 25 25 25 24 24 24 24 24 24 24 24 24 24 23 22 22 22 22 22 22 23 23 23 23 23 24 25 25 26 26 27 28 28 29 29
27 27 26 27 27 27 27 26 26 25 26 26 25 25 25 25 24 24 23 23 22 22 23 23 24 24 24 24 25 26 26 27 27 27 27 28 29 29
26 26 26 27 27 28 28 28 28 27 27 27 27 26 26 25 25 25 24 24 24 24 24 24 24 25 25 25 26 26 27 27 28 28 29 29 29 30
27 27 27 27 28 28 28 29 29 29 29 28 27 26 26 26 25 25 25 25 25 25 25 25 25 26 27 26 26 27 27 28 28 29 29 29 29 29
28 28 28 29 29 29 29 29 29 29 29 28 28 27 26 26 26 25 26 26 26 25 25 26 27 27 28 28 27 27 28 29 29 29 29 29 29 29
29 29 29 29 29 30 30 30 30 29 29 28 28 27 26 26 26 26 26 26 26 26 26 27 28 28 28 28 28 28 28 29 29 30 30 29 29 28
30 30 30 30 31 31 31 30 30 29 29 28 27 26 26 27 26 26 26 27 27 27 27 27 28 28 28 28 28 28 28 28 29 29 29 28 27 27
31 31 31 31 31 31 31 30 29 29 29 28 27 27 27 27 27 27 28 28 28 28 28 28 28 27 28 28 29 29 29 28 28 28 27 27 27 27
33 32 32 32 32 32 32 30 29 29 29 29 28 28 28 28 28 28 28 29 29 29 29 29 28 28 28 29 29 29 28 28 28 27 27 27 27 26
33 33 33 32 32 32 31 30 29 28 28 28 29 29 29 29 29 29 29 29 30 29 29 28 28 28 29 29 29 28 28 28 27 27 27 27 27 26
34 34 34 33 32 31 30 30 29 29 29 30 30 30 29 29 29 29 29 30 30 29 29 28 28 29 29 29 28 27 27 27 27 27 28 28 27 26
35 34 34 33 32 31 31 30 30 30 30 31 30 30 29 29 29 29 29 29 29 29 29 29 29 29 29 29 29 28 28 28 28 28 28 27 27 26
33 33 33 32 31 31 31 31 31 31 31 30 29 30 30 30 30 30 29 29 29 29 29 30 29 29 29 29 29 28 28 28 28 27 27 26 26 26

GEFSNE_500_meanwind_240.txt.gz
Wind_Speed
11 11 12 12 13 13 14 14 15 15 15 15 16 16 16 17 18 19 20 21 21 21 22 22 22 22 23 23 23 23 23 24 24 24 24 23 22 23
12 13 13 14 14 15 15 15 15 15 16 17 17 17 17 18 19 20 21 22 21 21 22 22 22 22 23 23 23 23 23 22 23 23 23 23 23 23
13 14 15 15 15 16 16 16 16 16 16 17 17 18 19 19 20 21 21 21 21 21 21 21 22 22 22 23 22 22 22 23 23 23 24 24 24 25
15 15 16 16 16 16 17 17 17 17 17 17 17 18 18 19 20 21 21 21 21 21 21 21 21 21 22 22 22 22 22 23 23 23 23 24 25 26
16 16 16 16 16 17 17 17 17 17 17 18 18 19 19 19 20 20 20 20 20 21 21 22 21 21 21 22 22 22 21 22 22 23 23 23 24 24
17 17 17 17 17 17 17 17 18 18 18 18 18 19 20 20 20 20 20 20 20 20 21 21 21 21 21 22 22 21 22 22 23 24 24 25 25 25
18 18 19 18 18 18 19 19 19 19 19 19 19 19 19 19 19 20 20 20 21 21 20 20 21 21 21 22 22 23 23 23 24 25 25 25 25 25
20 19 20 20 20 20 20 20 20 20 20 20 19 19 19 19 19 20 19 20 20 20 20 20 20 20 21 21 21 22 23 23 24 25 25 25 26 26
21 21 22 22 22 21 22 22 22 22 22 21 21 20 20 20 20 20 20 20 20 20 20 20 20 19 20 20 21 21 22 22 23 24 25 26 26 26
22 22 23 23 23 23 23 23 23 24 23 23 23 22 22 22 22 22 22 21 21 21 21 20 20 20 20 20 21 22 23 23 24 25 26 26 27 28
24 24 24 25 24 24 24 25 25 25 25 25 25 25 24 24 24 24 23 23 23 22 22 22 22 22 21 21 22 23 24 25 26 27 27 28 29 29
26 26 26 25 25 25 26 25 25 25 26 26 27 26 26 25 25 25 25 24 23 23 23 23 24 24 23 23 23 24 25 26 27 27 28 29 29 29
27 27 26 26 26 26 26 26 26 26 26 27 27 27 26 26 26 25 25 25 24 24 24 24 24 25 25 24 24 25 25 26 27 28 28 29 29 29
28 27 27 27 26 26 26 26 26 26 27 27 27 27 27 27 26 26 26 26 26 25 25 25 25 25 25 24 25 26 26 26 27 27 28 28 28 29
29 27 27 27 26 26 27 27 27 27 27 27 26 26 27 27 27 26 27 27 26 26 26 26 26 26 26 26 26 27 27 27 27 27 27 27 27 27
29 28 28 28 28 28 28 28 28 28 28 27 27 27 27 28 28 28 27 28 27 27 27 27 27 27 27 27 27 26 26 26 27 27 26 27 27 27
30 30 29 29 28 28 28 29 29 29 28 28 28 28 28 28 28 29 29 29 28 28 28 28 28 28 27 27 26 26 26 27 27 27 27 27 27 27
30 30 30 30 29 29 29 29 29 29 29 29 30 29 29 29 29 29 30 29 28 28 28 28 28 28 28 27 27 27 26 26 27 27 27 28 28 28
30 30 31 30 29 29 29 30 30 30 30 30 30 31 30 29 29 29 29 29 29 29 29 29 29 29 29 28 28 28 27 27 27 27 27 28 28 28
31 31 30 29 29 29 29 30 30 30 30 30 30 30 29 29 29 29 30 30 30 30 30 30 30 30 29 28 28 28 28 27 28 28 27 27 27 28
29 29 29 29 29 29 29 30 30 29 29 29 28 29 30 30 30 29 30 30 30 30 30 30 30 30 29 29 28 28 28 28 28 27 27 27 27 27
28 28 28 29 29 30 30 30 29 29 28 28 28 28 29 30 30 30 30 30 30 31 31 31 30 30 30 30 29 29 28 28 28 28 28 28 28 27
28 28 28 29 29 29 29 29 28 28 28 28 28 29 29 30 31 31 31 31 31 32 32 32 32 31 31 30 30 29 29 29 29 29 28 28 27 27

GEFSNE_500_meanwind_246.txt.gz
Wind_Speed
13 13 14 14 15 15 16 16 17 18 18 19 20 21 21 21 21 22 22 23 23 24 23 23 23 24 24 25 25 25 25 25 25 25 25 25 24 24
14 14 15 16 16 16 17 18 18 19 19 20 21 21 21 22 23 23 24 23 23 24 24 24 24 24 24 24 25 25 26 25 25 25 25 25 23 24
15 16 16 17 17 18 19 19 20 20 20 21 22 22 21 23 24 24 24 23 24 24 24 25 24 25 25 25 25 25 25 25 25 25 25 25 24 24
17 17 17 18 18 19 20 20 21 20 21 21 21 21 22 22 24 24 24 24 24 24 24 24 25 26 26 26 26 25 25 24 24 24 24 25 24 25
18 18 18 19 20 21 21 22 22 22 21 21 21 22 22 22 23 23 23 24 24 24 24 24 24 24 25 25 25 24 23 24 24 23 23 24 25 26
19 19 20 20 21 21 22 22 23 23 23 22 21 22 22 22 22 22 22 23 24 24 24 24 24 24 24 23 23 22 23 24 24 25 25 25 25 26
20 20 21 21 22 23 24 24 24 25 24 24 24 23 23 23 22 22 23 23 23 24 24 24 24 24 23 23 22 22 22 23 24 25 26 26 26 26
22 22 23 23 24 24 25 25 25 25 25 25 25 25 25 23 23 24 24 24 24 24 24 24 24 23 23 23 23 23 24 25 25 25 25 26 27 27
24 24 25 25 25 26 25 25 25 25 25 25 26 26 25 25 24 25 25 25 25 25 24 24 24 23 23 23 23 24 24 24 25 25 26 26 26 26
26 26 26 26 26 26 25 25 25 25 26 26 26 25 25 26 25 25 26 26 26 26 25 24 24 24 24 24 24 24 24 24 25 25 26 26 25 26
27 27 27 27 28 27 26 26 26 27 27 27 27 27 27 27 27 26 26 26 26 26 26 25 25 24 24 24 24 24 24 25 25 25 25 25 26 26
29 29 29 29 29 28 28 27 27 28 28 28 28 28 28 27 27 27 27 27 27 27 27 27 26 26 25 25 26 26 26 26 26 26 26 26 27 27
30 31 31 31 31 31 30 30 29 29 29 29 29 29 28 28 27 27 27 27 27 28 27 27 27 27 27 26 27 27 27 27 27 27 26 27 27 28
32 32 33 32 32 32 32 31 31 32 31 30 30 29 29 28 28 28 28 28 28 28 28 28 28 28 28 28 27 28 28 28 28 28 28 28 28 28
32 33 33 33 32 32 33 33 33 32 32 31 30 29 29 29 29 29 29 29 29 29 29 29 29 29 29 29 29 29 29 29 29 29 28 28 29 29
32 32 32 33 32 33 33 33 33 33 32 32 31 30 30 30 30 30 29 29 29 29 29 29 30 30 30 30 30 30 29 29 29 29 29 29 29 29
33 33 33 33 33 32 32 32 32 32 32 31 31 31 31 31 31 30 30 30 30 30 30 30 30 31 31 30 30 30 29 29 29 29 30 30 29 29
33 33 33 33 33 33 33 33 33 32 32 32 31 31 30 30 30 31 30 30 30 30 30 30 31 31 31 30 30 30 30 29 29 29 30 30 30 30
33 33 33 33 33 33 33 33 33 32 32 32 32 31 31 31 30 30 30 30 30 30 30 30 30 31 31 31 30 31 31 31 31 30 30 30 29 29
33 33 33 33 33 32 32 33 32 32 31 31 31 31 30 30 29 30 30 30 30 30 30 30 30 31 31 31 31 31 31 31 32 31 31 30 29 29
33 33 33 32 32 32 32 32 32 31 31 30 29 30 30 30 30 30 30 30 30 30 30 30 31 31 31 32 32 31 31 32 31 31 30 30 29 28
33 33 33 33 32 32 32 32 32 32 31 30 30 30 29 30 30 29 29 30 29 30 30 30 31 31 31 32 32 32 32 31 31 31 30 29 29 28
34 34 34 34 33 33 33 33 33 32 32 31 31 30 30 30 30 30 30 30 30 30 31 31 31 31 32 31 31 31 32 32 31 31 30 30 29 29